QPF
0.00 0.00 0.00 0.00 0.00 0.00 0.00 0.00 0.00 0.00 0.00 0.00 0.00 0.01 0.00 0.00 0.01 0.01 0.02 0.05 0.09 0.05 0.05 0.07 0.05 0.03 0.02 0.02 0.01 0.01 0.01 0.01 0.00 0.00 0.00 0.00 0.00 0.01 0.03 0.04 0.04 0.03 0.05
0.00 0.00 0.00 0.00 0.00 0.00 0.00 0.00 0.00 0.00 0.01 0.01 0.00 0.01 0.01 0.01 0.01 0.01 0.02 0.06 0.11 0.07 0.06 0.07 0.06 0.05 0.04 0.03 0.02 0.02 0.02 0.01 0.00 0.00 0.01 0.02 0.01 0.00 0.00 0.01 0.03 0.05 0.08
0.00 0.00 0.00 0.00 0.00 0.00 0.00 0.00 0.00 0.00 0.01 0.01 0.00 0.01 0.01 0.01 0.02 0.01 0.01 0.03 0.05 0.06 0.05 0.04 0.05 0.06 0.04 0.03 0.02 0.05 0.06 0.01 0.00 0.00 0.00 0.01 0.02 0.03 0.00 0.01 0.01 0.01 0.03
0.00 0.00 0.00 0.00 0.00 0.00 0.00 0.00 0.00 0.00 0.01 0.01 0.00 0.00 0.01 0.01 0.01 0.01 0.01 0.02 0.03 0.06 0.08 0.09 0.10 0.09 0.05 0.02 0.01 0.04 0.06 0.03 0.01 0.00 0.00 0.00 0.01 0.05 0.02 0.01 0.00 0.00 0.00
0.00 0.00 0.00 0.00 0.00 0.00 0.00 0.00 0.00 0.00 0.01 0.01 0.00 0.00 0.00 0.00 0.01 0.01 0.01 0.02 0.04 0.09 0.09 0.11 0.13 0.10 0.06 0.02 0.01 0.05 0.07 0.04 0.00 0.00 0.00 0.00 0.01 0.04 0.04 0.03 0.03 0.01 0.00
0.00 0.00 0.00 0.00 0.00 0.00 0.00 0.00 0.00 0.00 0.00 0.01 0.00 0.00 0.00 0.00 0.00 0.01 0.01 0.02 0.04 0.06 0.05 0.07 0.10 0.07 0.03 0.01 0.01 0.03 0.03 0.00 0.00 0.00 0.00 0.00 0.00 0.04 0.05 0.03 0.03 0.02 0.01
0.00 0.00 0.00 0.00 0.00 0.00 0.00 0.00 0.00 0.00 0.00 0.00 0.01 0.00 0.00 0.00 0.00 0.00 0.01 0.01 0.02 0.02 0.02 0.04 0.07 0.05 0.02 0.01 0.00 0.01 0.01 0.00 0.00 0.00 0.00 0.00 0.00 0.02 0.02 0.03 0.02 0.01 0.00
0.00 0.00 0.00 0.00 0.00 0.00 0.00 0.00 0.00 0.00 0.00 0.00 0.01 0.01 0.01 0.01 0.01 0.00 0.00 0.00 0.01 0.01 0.02 0.04 0.09 0.15 0.10 0.02 0.01 0.01 0.00 0.00 0.00 0.00 0.00 0.00 0.00 0.01 0.02 0.06 0.04 0.01 0.01
0.00 0.00 0.00 0.00 0.00 0.00 0.00 0.00 0.00 0.00 0.00 0.00 0.00 0.01 0.01 0.01 0.01 0.01 0.00 0.00 0.01 0.01 0.02 0.04 0.10 0.21 0.17 0.06 0.02 0.03 0.01 0.00 0.00 0.00 0.00 0.00 0.00 0.00 0.01 0.05 0.04 0.02 0.00
0.00 0.00 0.00 0.00 0.00 0.00 0.00 0.00 0.00 0.00 0.00 0.00 0.00 0.00 0.01 0.01 0.01 0.01 0.00 0.00 0.01 0.02 0.02 0.02 0.05 0.14 0.18 0.12 0.11 0.09 0.01 0.00 0.00 0.00 0.00 0.00 0.00 0.00 0.01 0.04 0.03 0.01 0.01
0.00 0.00 0.00 0.00 0.00 0.00 0.00 0.00 0.00 0.00 0.00 0.00 0.00 0.00 0.00 0.00 0.00 0.00 0.00 0.00 0.00 0.01 0.02 0.02 0.04 0.10 0.17 0.17 0.18 0.10 0.01 0.00 0.00 0.00 0.00 0.00 0.00 0.00 0.01 0.03 0.02 0.00 0.01
0.00 0.00 0.00 0.00 0.00 0.00 0.00 0.00 0.00 0.00 0.00 0.00 0.00 0.00 0.00 0.00 0.00 0.00 0.00 0.00 0.00 0.00 0.01 0.03 0.06 0.09 0.10 0.09 0.16 0.08 0.02 0.01 0.00 0.00 0.00 0.00 0.00 0.00 0.00 0.02 0.03 0.01 0.00
0.00 0.00 0.00 0.00 0.00 0.00 0.00 0.00 0.00 0.00 0.00 0.00 0.00 0.00 0.00 0.00 0.00 0.00 0.00 0.00 0.00 0.00 0.00 0.01 0.03 0.02 0.03 0.12 0.19 0.10 0.04 0.01 0.00 0.00 0.00 0.00 0.00 0.00 0.00 0.01 0.03 0.02 0.01
0.00 0.00 0.00 0.00 0.00 0.00 0.00 0.00 0.00 0.00 0.00 0.00 0.00 0.00 0.00 0.00 0.00 0.00 0.00 0.00 0.00 0.00 0.00 0.01 0.01 0.02 0.05 0.10 0.11 0.07 0.03 0.01 0.00 0.00 0.00 0.00 0.00 0.00 0.00 0.00 0.02 0.03 0.02
0.00 0.00 0.00 0.00 0.00 0.00 0.00 0.00 0.00 0.00 0.00 0.00 0.00 0.00 0.00 0.00 0.00 0.00 0.00 0.00 0.00 0.01 0.01 0.01 0.01 0.02 0.04 0.07 0.05 0.04 0.02 0.01 0.00 0.00 0.00 0.00 0.00 0.00 0.00 0.00 0.00 0.03 0.05
0.00 0.00 0.00 0.00 0.00 0.00 0.00 0.00 0.00 0.00 0.00 0.00 0.00 0.00 0.00 0.00 0.00 0.00 0.00 0.00 0.00 0.01 0.02 0.04 0.03 0.03 0.04 0.06 0.05 0.05 0.04 0.02 0.01 0.00 0.00 0.00 0.00 0.00 0.00 0.00 0.00 0.01 0.05
0.00 0.00 0.00 0.00 0.00 0.00 0.00 0.00 0.00 0.00 0.00 0.00 0.00 0.00 0.00 0.00 0.00 0.00 0.00 0.00 0.00 0.01 0.03 0.08 0.12 0.12 0.11 0.11 0.09 0.10 0.09 0.07 0.03 0.01 0.00 0.00 0.00 0.00 0.00 0.00 0.00 0.01 0.04
0.00 0.00 0.00 0.00 0.00 0.00 0.00 0.00 0.00 0.00 0.00 0.00 0.00 0.00 0.00 0.01 0.01 0.01 0.00 0.00 0.00 0.00 0.01 0.06 0.12 0.14 0.13 0.12 0.10 0.12 0.14 0.12 0.07 0.04 0.03 0.01 0.00 0.00 0.00 0.00 0.00 0.01 0.05
0.00 0.00 0.00 0.00 0.00 0.00 0.00 0.00 0.00 0.00 0.00 0.00 0.00 0.00 0.00 0.01 0.02 0.02 0.02 0.01 0.01 0.00 0.00 0.02 0.04 0.06 0.07 0.09 0.10 0.11 0.12 0.11 0.07 0.04 0.02 0.01 0.00 0.00 0.00 0.00 0.00 0.01 0.04
0.00 0.00 0.00 0.00 0.00 0.00 0.00 0.00 0.00 0.00 0.00 0.00 0.00 0.00 0.00 0.00 0.01 0.01 0.01 0.02 0.02 0.02 0.02 0.02 0.02 0.03 0.03 0.06 0.08 0.07 0.07 0.08 0.07 0.04 0.01 0.00 0.00 0.00 0.00 0.00 0.00 0.00 0.02
0.00 0.00 0.00 0.00 0.00 0.00 0.00 0.00 0.00 0.00 0.00 0.00 0.00 0.00 0.00 0.00 0.00 0.00 0.00 0.00 0.02 0.02 0.04 0.05 0.03 0.03 0.04 0.06 0.06 0.04 0.02 0.05 0.05 0.04 0.02 0.01 0.00 0.00 0.00 0.00 0.00 0.00 0.00
0.00 0.00 0.00 0.00 0.00 0.00 0.00 0.00 0.00 0.00 0.00 0.00 0.00 0.00 0.00 0.00 0.00 0.00 0.00 0.00 0.00 0.00 0.00 0.00 0.00 0.00 0.01 0.03 0.05 0.04 0.01 0.01 0.01 0.03 0.04 0.03 0.01 0.01 0.00 0.00 0.00 0.00 0.00
0.00 0.00 0.00 0.00 0.00 0.00 0.00 0.00 0.00 0.00 0.00 0.00 0.00 0.00 0.00 0.00 0.00 0.00 0.00 0.00 0.00 0.00 0.00 0.00 0.00 0.00 0.00 0.00 0.02 0.05 0.04 0.02 0.00 0.01 0.02 0.03 0.03 0.02 0.01 0.00 0.00 0.00 0.00
0.00 0.00 0.00 0.00 0.00 0.00 0.00 0.00 0.00 0.00 0.00 0.00 0.00 0.00 0.00 0.00 0.00 0.00 0.00 0.00 0.00 0.00 0.00 0.00 0.00 0.00 0.00 0.00 0.01 0.02 0.03 0.04 0.03 0.02 0.00 0.01 0.03 0.03 0.03 0.02 0.01 0.00 0.00
0.00 0.00 0.00 0.00 0.00 0.00 0.00 0.00 0.00 0.00 0.00 0.00 0.00 0.00 0.00 0.00 0.00 0.00 0.00 0.00 0.00 0.00 0.00 0.00 0.00 0.00 0.00 0.00 0.00 0.00 0.00 0.01 0.03 0.04 0.02 0.01 0.00 0.01 0.02 0.03 0.02 0.01 0.01
0.00 0.00 0.00 0.00 0.00 0.00 0.00 0.00 0.00 0.00 0.00 0.00 0.00 0.00 0.00 0.00 0.00 0.00 0.00 0.00 0.00 0.00 0.00 0.00 0.00 0.00 0.00 0.00 0.00 0.00 0.00 0.00 0.00 0.01 0.02 0.02 0.02 0.00 0.01 0.01 0.01 0.02 0.01
MSLP
1010.08 1009.67 1009.46 1009.47 1009.66 1009.95 1010.28 1010.58 1010.78 1010.89 1010.91 1010.90 1010.89 1010.93 1011.04 1011.21 1011.42 1011.64 1011.82 1011.94 1012.02 1012.05 1012.06 1012.09 1012.15 1012.26 1012.40 1012.55 1012.69 1012.81 1012.88 1012.92 1012.94 1012.94 1012.96 1012.99 1013.04 1013.09 1013.13 1013.15 1013.13 1013.10 1013.06
1009.97 1009.58 1009.37 1009.38 1009.56 1009.85 1010.17 1010.46 1010.68 1010.80 1010.85 1010.86 1010.89 1010.96 1011.08 1011.26 1011.47 1011.67 1011.84 1011.96 1012.03 1012.06 1012.09 1012.13 1012.20 1012.31 1012.43 1012.56 1012.68 1012.77 1012.83 1012.86 1012.89 1012.92 1012.96 1013.02 1013.09 1013.14 1013.17 1013.17 1013.13 1013.06 1013.01
1009.77 1009.40 1009.21 1009.23 1009.41 1009.71 1010.04 1010.34 1010.57 1010.72 1010.80 1010.84 1010.89 1010.97 1011.10 1011.27 1011.46 1011.63 1011.78 1011.88 1011.95 1011.99 1012.04 1012.10 1012.19 1012.30 1012.43 1012.55 1012.65 1012.73 1012.78 1012.82 1012.86 1012.91 1012.98 1013.06 1013.14 1013.20 1013.22 1013.20 1013.15 1013.07 1013.01
1009.51 1009.18 1009.02 1009.06 1009.27 1009.58 1009.92 1010.23 1010.48 1010.64 1010.74 1010.81 1010.87 1010.96 1011.08 1011.23 1011.38 1011.53 1011.64 1011.73 1011.79 1011.85 1011.91 1012.00 1012.11 1012.25 1012.38 1012.51 1012.61 1012.69 1012.75 1012.80 1012.86 1012.94 1013.03 1013.13 1013.22 1013.28 1013.29 1013.27 1013.21 1013.14 1013.08
1009.27 1008.97 1008.85 1008.93 1009.16 1009.48 1009.83 1010.15 1010.40 1010.58 1010.69 1010.76 1010.83 1010.92 1011.03 1011.16 1011.28 1011.40 1011.48 1011.55 1011.60 1011.66 1011.74 1011.85 1011.99 1012.15 1012.31 1012.45 1012.57 1012.67 1012.75 1012.82 1012.91 1013.01 1013.11 1013.22 1013.31 1013.37 1013.38 1013.35 1013.30 1013.24 1013.20
1009.09 1008.84 1008.76 1008.87 1009.12 1009.45 1009.79 1010.10 1010.34 1010.51 1010.62 1010.70 1010.78 1010.88 1010.98 1011.10 1011.20 1011.29 1011.35 1011.39 1011.43 1011.48 1011.57 1011.69 1011.85 1012.03 1012.21 1012.38 1012.52 1012.65 1012.75 1012.86 1012.97 1013.09 1013.21 1013.32 1013.40 1013.45 1013.46 1013.43 1013.39 1013.36 1013.35
1009.03 1008.81 1008.76 1008.90 1009.16 1009.48 1009.80 1010.08 1010.29 1010.44 1010.54 1010.63 1010.72 1010.83 1010.95 1011.07 1011.17 1011.24 1011.28 1011.30 1011.32 1011.36 1011.43 1011.56 1011.72 1011.91 1012.11 1012.30 1012.47 1012.62 1012.76 1012.89 1013.03 1013.16 1013.29 1013.39 1013.46 1013.50 1013.50 1013.48 1013.45 1013.44 1013.46
1009.08 1008.89 1008.88 1009.02 1009.27 1009.56 1009.83 1010.06 1010.22 1010.34 1010.44 1010.54 1010.66 1010.80 1010.96 1011.10 1011.22 1011.28 1011.31 1011.31 1011.30 1011.31 1011.36 1011.46 1011.61 1011.79 1012.00 1012.20 1012.40 1012.58 1012.75 1012.91 1013.06 1013.21 1013.33 1013.42 1013.48 1013.50 1013.49 1013.46 1013.45 1013.46 1013.51
1009.23 1009.08 1009.08 1009.22 1009.44 1009.67 1009.87 1010.03 1010.14 1010.22 1010.31 1010.42 1010.58 1010.77 1010.98 1011.17 1011.31 1011.40 1011.41 1011.39 1011.34 1011.31 1011.33 1011.39 1011.52 1011.69 1011.89 1012.10 1012.32 1012.52 1012.71 1012.90 1013.06 1013.21 1013.33 1013.40 1013.44 1013.44 1013.41 1013.38 1013.37 1013.39 1013.46
1009.45 1009.33 1009.34 1009.46 1009.63 1009.79 1009.91 1009.99 1010.03 1010.07 1010.15 1010.29 1010.49 1010.74 1011.01 1011.24 1011.42 1011.52 1011.53 1011.48 1011.41 1011.34 1011.31 1011.34 1011.43 1011.59 1011.78 1012.00 1012.22 1012.45 1012.66 1012.85 1013.03 1013.18 1013.28 1013.34 1013.36 1013.34 1013.29 1013.25 1013.24 1013.27 1013.34
1009.70 1009.61 1009.62 1009.71 1009.82 1009.90 1009.93 1009.93 1009.91 1009.92 1009.99 1010.15 1010.39 1010.69 1011.00 1011.28 1011.49 1011.60 1011.61 1011.54 1011.44 1011.33 1011.27 1011.27 1011.34 1011.47 1011.66 1011.88 1012.12 1012.36 1012.58 1012.79 1012.97 1013.11 1013.21 1013.26 1013.26 1013.22 1013.16 1013.11 1013.09 1013.11 1013.19
1009.95 1009.88 1009.90 1009.95 1010.00 1010.00 1009.95 1009.87 1009.80 1009.77 1009.84 1010.01 1010.28 1010.61 1010.95 1011.25 1011.47 1011.58 1011.58 1011.50 1011.37 1011.25 1011.16 1011.15 1011.21 1011.34 1011.54 1011.77 1012.01 1012.26 1012.50 1012.71 1012.89 1013.03 1013.12 1013.16 1013.15 1013.10 1013.04 1012.98 1012.95 1012.97 1013.03
1010.17 1010.13 1010.14 1010.16 1010.15 1010.09 1009.98 1009.84 1009.72 1009.67 1009.73 1009.90 1010.17 1010.51 1010.85 1011.15 1011.35 1011.45 1011.43 1011.34 1011.20 1011.07 1010.99 1010.97 1011.04 1011.19 1011.40 1011.64 1011.90 1012.15 1012.40 1012.61 1012.79 1012.93 1013.02 1013.06 1013.05 1013.01 1012.95 1012.89 1012.86 1012.86 1012.91
1010.35 1010.34 1010.35 1010.34 1010.29 1010.18 1010.02 1009.85 1009.71 1009.65 1009.69 1009.85 1010.10 1010.41 1010.72 1010.98 1011.15 1011.22 1011.18 1011.07 1010.94 1010.82 1010.75 1010.76 1010.85 1011.02 1011.24 1011.50 1011.77 1012.03 1012.27 1012.49 1012.66 1012.80 1012.89 1012.93 1012.94 1012.91 1012.86 1012.82 1012.79 1012.79 1012.83
1010.49 1010.50 1010.50 1010.48 1010.40 1010.27 1010.10 1009.92 1009.78 1009.71 1009.75 1009.88 1010.09 1010.35 1010.60 1010.79 1010.90 1010.93 1010.86 1010.74 1010.62 1010.52 1010.48 1010.52 1010.64 1010.84 1011.08 1011.35 1011.62 1011.88 1012.11 1012.32 1012.49 1012.62 1012.71 1012.77 1012.79 1012.78 1012.76 1012.74 1012.72 1012.73 1012.76
1010.59 1010.61 1010.61 1010.57 1010.49 1010.36 1010.21 1010.05 1009.94 1009.88 1009.91 1010.01 1010.17 1010.35 1010.51 1010.63 1010.67 1010.64 1010.55 1010.43 1010.31 1010.24 1010.23 1010.30 1010.45 1010.66 1010.91 1011.17 1011.43 1011.68 1011.90 1012.09 1012.25 1012.37 1012.47 1012.54 1012.58 1012.59 1012.60 1012.60 1012.61 1012.63 1012.65
1010.65 1010.66 1010.66 1010.62 1010.55 1010.45 1010.34 1010.23 1010.16 1010.13 1010.15 1010.22 1010.32 1010.42 1010.49 1010.52 1010.49 1010.41 1010.30 1010.17 1010.08 1010.03 1010.05 1010.14 1010.30 1010.51 1010.74 1010.99 1011.22 1011.44 1011.64 1011.81 1011.95 1012.07 1012.16 1012.23 1012.28 1012.32 1012.35 1012.37 1012.40 1012.43 1012.47
1010.66 1010.67 1010.66 1010.63 1010.59 1010.53 1010.48 1010.44 1010.41 1010.41 1010.44 1010.48 1010.52 1010.54 1010.53 1010.48 1010.39 1010.27 1010.14 1010.03 1009.95 1009.92 1009.96 1010.06 1010.20 1010.39 1010.59 1010.80 1011.00 1011.19 1011.35 1011.50 1011.62 1011.72 1011.81 1011.88 1011.93 1011.97 1012.01 1012.05 1012.09 1012.13 1012.18
1010.65 1010.64 1010.62 1010.61 1010.60 1010.60 1010.61 1010.63 1010.67 1010.70 1010.73 1010.74 1010.72 1010.67 1010.59 1010.48 1010.35 1010.21 1010.09 1009.99 1009.94 1009.93 1009.97 1010.06 1010.18 1010.32 1010.48 1010.64 1010.80 1010.94 1011.08 1011.20 1011.31 1011.40 1011.47 1011.52 1011.56 1011.59 1011.62 1011.65 1011.69 1011.74 1011.79
1010.62 1010.60 1010.57 1010.57 1010.59 1010.64 1010.71 1010.80 1010.88 1010.94 1010.96 1010.94 1010.88 1010.78 1010.64 1010.49 1010.35 1010.21 1010.11 1010.05 1010.02 1010.03 1010.07 1010.14 1010.22 1010.32 1010.42 1010.53 1010.64 1010.75 1010.87 1010.97 1011.07 1011.14 1011.19 1011.23 1011.24 1011.23 1011.23 1011.23 1011.25 1011.28 1011.34
1010.59 1010.55 1010.51 1010.52 1010.56 1010.65 1010.77 1010.90 1011.02 1011.10 1011.12 1011.07 1010.97 1010.83 1010.66 1010.50 1010.35 1010.25 1010.18 1010.16 1010.17 1010.20 1010.24 1010.28 1010.33 1010.37 1010.42 1010.48 1010.56 1010.65 1010.75 1010.85 1010.94 1011.01 1011.04 1011.04 1011.01 1010.96 1010.91 1010.86 1010.83 1010.84 1010.87
1010.57 1010.50 1010.45 1010.45 1010.51 1010.63 1010.79 1010.95 1011.09 1011.17 1011.18 1011.11 1010.98 1010.81 1010.63 1010.47 1010.35 1010.28 1010.27 1010.30 1010.34 1010.40 1010.44 1010.46 1010.47 1010.47 1010.48 1010.51 1010.56 1010.65 1010.75 1010.86 1010.95 1011.02 1011.04 1011.01 1010.93 1010.82 1010.70 1010.59 1010.50 1010.45 1010.45
1010.56 1010.46 1010.38 1010.37 1010.44 1010.57 1010.75 1010.93 1011.08 1011.17 1011.17 1011.08 1010.93 1010.75 1010.56 1010.42 1010.33 1010.31 1010.35 1010.43 1010.52 1010.60 1010.64 1010.65 1010.63 1010.60 1010.58 1010.59 1010.64 1010.73 1010.84 1010.97 1011.08 1011.15 1011.16 1011.10 1010.97 1010.81 1010.62 1010.43 1010.27 1010.16 1010.10
1010.52 1010.37 1010.27 1010.24 1010.31 1010.46 1010.66 1010.86 1011.03 1011.12 1011.12 1011.03 1010.87 1010.68 1010.51 1010.38 1010.33 1010.35 1010.43 1010.55 1010.67 1010.77 1010.82 1010.82 1010.78 1010.73 1010.69 1010.69 1010.74 1010.84 1010.98 1011.12 1011.25 1011.33 1011.33 1011.25 1011.09 1010.87 1010.62 1010.37 1010.14 1009.96 1009.84
1010.43 1010.23 1010.09 1010.05 1010.12 1010.28 1010.51 1010.75 1010.95 1011.06 1011.08 1011.00 1010.85 1010.67 1010.51 1010.40 1010.37 1010.41 1010.52 1010.66 1010.79 1010.89 1010.93 1010.93 1010.87 1010.81 1010.76 1010.75 1010.81 1010.92 1011.07 1011.23 1011.38 1011.46 1011.46 1011.37 1011.19 1010.94 1010.65 1010.35 1010.06 1009.82 1009.63
1010.26 1009.99 1009.82 1009.77 1009.85 1010.05 1010.32 1010.61 1010.86 1011.03 1011.09 1011.04 1010.91 1010.75 1010.60 1010.50 1010.46 1010.51 1010.61 1010.74 1010.86 1010.95 1010.98 1010.95 1010.88 1010.80 1010.74 1010.73 1010.78 1010.89 1011.05 1011.22 1011.37 1011.46 1011.46 1011.38 1011.20 1010.94 1010.63 1010.30 1009.98 1009.70 1009.46
Thickness
5767 5769 5767 5764 5761 5759 5756 5754 5753 5752 5751 5750 5749 5748 5747 5745 5744 5742 5741 5739 5737 5736 5735 5734 5734 5732 5731 5729 5729 5729 5727 5727 5726 5725 5725 5725 5726 5728 5730 5732 5734 5737 5738
5770 5768 5766 5763 5760 5758 5756 5753 5751 5750 5749 5748 5747 5746 5745 5743 5742 5741 5739 5737 5735 5735 5734 5733 5731 5730 5729 5727 5726 5725 5724 5723 5722 5722 5721 5721 5722 5723 5725 5727 5729 5732 5734
5767 5765 5763 5761 5758 5757 5755 5752 5750 5748 5747 5746 5745 5743 5742 5741 5740 5739 5737 5735 5734 5733 5732 5731 5729 5727 5726 5724 5723 5722 5721 5719 5719 5719 5718 5718 5718 5719 5720 5722 5724 5726 5730
5763 5761 5760 5758 5756 5754 5752 5750 5748 5747 5745 5744 5742 5740 5739 5738 5738 5736 5735 5733 5731 5730 5728 5727 5726 5724 5723 5721 5720 5719 5718 5717 5716 5715 5715 5715 5715 5715 5716 5717 5719 5721 5724
5759 5758 5757 5755 5753 5751 5749 5747 5745 5744 5742 5740 5738 5736 5735 5735 5734 5733 5732 5730 5728 5726 5725 5723 5722 5720 5719 5718 5717 5716 5715 5714 5713 5712 5711 5711 5711 5711 5712 5712 5713 5715 5719
5755 5754 5753 5751 5749 5747 5745 5743 5742 5740 5738 5736 5735 5733 5731 5730 5730 5729 5728 5726 5725 5723 5722 5721 5719 5717 5716 5715 5713 5712 5711 5711 5710 5709 5708 5708 5707 5708 5708 5708 5708 5710 5713
5751 5750 5748 5747 5745 5743 5740 5738 5737 5735 5733 5731 5730 5728 5727 5726 5725 5724 5722 5722 5721 5720 5719 5718 5717 5715 5713 5712 5710 5709 5708 5707 5706 5705 5704 5705 5705 5705 5705 5705 5704 5705 5708
5747 5745 5742 5742 5741 5739 5736 5734 5732 5730 5728 5726 5725 5724 5722 5721 5720 5719 5718 5717 5717 5716 5715 5714 5713 5711 5711 5709 5707 5706 5705 5704 5703 5702 5701 5701 5702 5701 5702 5702 5702 5702 5703
5743 5741 5739 5737 5736 5734 5732 5730 5728 5726 5724 5722 5721 5719 5718 5716 5715 5715 5714 5713 5713 5712 5711 5710 5709 5707 5706 5705 5704 5702 5701 5700 5698 5698 5698 5698 5698 5698 5698 5699 5699 5699 5700
5735 5735 5734 5733 5732 5730 5728 5726 5724 5722 5720 5718 5716 5714 5713 5712 5710 5710 5710 5709 5708 5708 5708 5707 5705 5703 5701 5701 5700 5698 5695 5694 5692 5691 5692 5693 5693 5693 5694 5695 5695 5696 5696
5725 5724 5724 5724 5725 5724 5722 5721 5720 5718 5715 5713 5712 5710 5708 5706 5705 5704 5703 5703 5703 5703 5703 5703 5701 5699 5697 5696 5695 5693 5691 5688 5687 5686 5686 5687 5687 5688 5689 5691 5691 5691 5692
5715 5716 5716 5716 5717 5717 5716 5715 5713 5712 5710 5708 5706 5704 5703 5701 5699 5698 5697 5697 5696 5696 5697 5697 5696 5694 5692 5690 5689 5688 5687 5684 5682 5681 5680 5680 5681 5682 5684 5685 5685 5686 5687
5708 5709 5710 5712 5712 5712 5710 5708 5706 5705 5703 5701 5700 5698 5696 5694 5693 5692 5691 5690 5689 5689 5689 5690 5690 5689 5687 5684 5682 5681 5680 5679 5677 5676 5675 5674 5675 5676 5678 5679 5679 5681 5682
5703 5703 5702 5703 5705 5705 5703 5700 5698 5696 5694 5693 5692 5690 5687 5685 5684 5683 5683 5683 5682 5682 5682 5682 5682 5681 5680 5677 5675 5672 5672 5672 5671 5670 5669 5669 5669 5671 5673 5675 5675 5676 5677
5696 5694 5693 5693 5693 5693 5692 5690 5688 5686 5684 5682 5681 5679 5678 5676 5674 5673 5672 5673 5673 5674 5674 5674 5674 5673 5671 5669 5667 5665 5664 5664 5664 5663 5663 5663 5664 5665 5666 5668 5670 5672 5673
5688 5686 5684 5684 5683 5682 5680 5678 5676 5675 5674 5671 5669 5668 5666 5665 5664 5663 5662 5661 5663 5664 5665 5665 5664 5663 5661 5659 5657 5656 5656 5655 5656 5656 5656 5657 5657 5658 5659 5660 5663 5666 5668
5681 5678 5676 5675 5674 5672 5669 5667 5665 5664 5663 5661 5660 5658 5656 5654 5652 5652 5651 5651 5652 5653 5655 5655 5654 5652 5650 5649 5647 5646 5645 5645 5646 5647 5648 5649 5650 5651 5653 5654 5656 5658 5661
5673 5669 5667 5666 5663 5660 5657 5655 5652 5650 5649 5648 5648 5646 5644 5642 5641 5641 5640 5640 5641 5643 5643 5643 5642 5640 5639 5639 5638 5638 5638 5638 5638 5638 5639 5641 5642 5643 5645 5647 5648 5650 5652
5663 5660 5656 5653 5651 5648 5645 5642 5639 5636 5635 5634 5633 5632 5632 5630 5629 5628 5628 5628 5630 5630 5631 5632 5630 5629 5629 5629 5630 5630 5630 5630 5630 5630 5631 5633 5634 5635 5636 5638 5639 5640 5643
5652 5649 5644 5641 5637 5635 5632 5628 5624 5620 5618 5618 5617 5616 5616 5616 5615 5614 5614 5614 5616 5617 5618 5619 5618 5618 5619 5620 5621 5621 5622 5622 5622 5622 5623 5625 5627 5627 5627 5628 5629 5631 5634
5640 5637 5633 5627 5623 5620 5616 5612 5607 5604 5602 5602 5602 5602 5601 5600 5601 5600 5600 5600 5601 5602 5604 5605 5606 5606 5607 5610 5610 5610 5611 5612 5612 5612 5612 5613 5615 5618 5619 5619 5619 5621 5624
5626 5621 5617 5613 5609 5606 5602 5598 5593 5589 5587 5587 5587 5589 5588 5587 5587 5587 5586 5586 5588 5589 5590 5592 5593 5593 5595 5597 5598 5598 5597 5597 5599 5600 5599 5599 5600 5602 5605 5608 5610 5611 5613
5609 5606 5604 5600 5596 5592 5589 5584 5581 5578 5575 5574 5573 5573 5574 5574 5574 5574 5573 5573 5575 5577 5577 5579 5580 5581 5580 5582 5584 5584 5582 5582 5582 5584 5584 5583 5584 5586 5589 5592 5597 5600 5602
5597 5594 5591 5587 5583 5578 5574 5571 5567 5564 5561 5560 5558 5557 5559 5560 5561 5562 5562 5562 5563 5565 5566 5567 5567 5567 5568 5566 5566 5566 5565 5565 5563 5564 5566 5566 5567 5569 5572 5576 5580 5585 5589
5585 5580 5577 5572 5568 5564 5559 5557 5554 5550 5548 5546 5544 5544 5545 5547 5548 5549 5550 5552 5553 5553 5554 5554 5553 5553 5552 5551 5550 5548 5546 5545 5544 5543 5542 5545 5548 5552 5554 5559 5563 5567 5572
5568 5564 5561 5557 5554 5550 5545 5542 5540 5538 5536 5535 5533 5532 5533 5535 5536 5537 5539 5540 5541 5541 5541 5541 5541 5540 5538 5537 5535 5533 5531 5529 5527 5525 5524 5524 5527 5532 5535 5539 5543 5548 5553